Weather History for KCDR - January, 2014

Change the Weather History Date:

Thursday, January 23, 2014

  Actual Average Record
Temperature  
Mean Temperature 21 °F 25 °F  
Max Temperature 34 °F 39 °F 68 °F (1981)
Min Temperature 7 °F 10 °F -16 °F (1963)
Degree Days  
Heating Degree Days 44 40  
Month to date heating degree days 831 937  
Since 1 July heating degree days 3894 3879  
Cooling Degree Days 0 0  
Month to date cooling degree days 0 0  
Year to date cooling degree days 0 0  
Moisture  
Dew Point 6 °F    
Average Humidity 54    
Maximum Humidity 73    
Minimum Humidity 35    
Precipitation  
Precipitation 0.00 in 0.01 in 0.18 in (1996)
Month to date precipitation 0.12 0.25  
Year to date precipitation 0.12 0.25  
Sea Level Pressure  
Sea Level Pressure 30.61 in    
Wind  
Wind Speed 7 mph (WSW)    
Max Wind Speed 16 mph    
Max Gust Speed 21 mph    
Visibility 10 miles    
Events      
T = Trace of Precipitation, MM = Missing Value Source: NWS Daily Summary

Daily Weather History Graph

Daily Weather History Graph

Search for Another Location

Airport or City:

Trip Planner

Search our weather history database for the weather conditions in past years. The results will help you decide how hot, cold, wet, or windy it might be!

Date:

Astronomy

Jan. 23, 2014 Rise Set
Actual Time 7:15 AM MST 4:53 PM MST
Civil Twilight 6:44 AM MST 5:24 PM MST
Nautical Twilight 6:10 AM MST 5:58 PM MST
Astronomical Twilight 5:36 AM MST 6:32 PM MST
Moon No Moon Rise 10:40 AM MST (1/23)
Length of Visible Light 10h 39m
Length of Day
9h 38m
Waning Gibbous, 54% of the Moon is Illuminated
Jan 23
Waning Gibbous
Jan 23
Last Quarter
Jan 30
New
Feb 6
First Quarter
Feb 14
Full

Hourly Weather History & Observations

Time (MST) Temp. Windchill Dew Point Humidity Pressure Visibility Wind Dir Wind Speed Gust Speed Precip Events Conditions
12:53 AM 7.0 °F -3.3 °F -2.9 °F 64% 30.73 in 10.0 mi NE 5.8 mph - N/A   Overcast
1:53 AM 7.0 °F 0.1 °F -2.9 °F 64% 30.75 in 10.0 mi NE 3.5 mph - N/A   Overcast
2:53 AM 7.0 °F - -4.0 °F 61% 30.76 in 10.0 mi Calm Calm - N/A   Overcast
3:53 AM 8.1 °F - -4.0 °F 58% 30.76 in 10.0 mi Calm Calm - N/A   Overcast
4:53 AM 8.1 °F - -2.9 °F 61% 30.78 in 10.0 mi Calm Calm - N/A   Overcast
5:53 AM 8.1 °F - -0.9 °F 67% 30.79 in 10.0 mi Calm Calm - N/A   Overcast
6:53 AM 8.1 °F - -0.9 °F 67% 30.79 in 10.0 mi Calm Calm - N/A   Overcast
7:53 AM 10.0 °F - 3.0 °F 73% 30.79 in 10.0 mi Calm Calm - N/A   Overcast
8:22 AM 10.4 °F 4.0 °F 5.0 °F 79% 30.56 in 10.0 mi SW 3.5 mph - N/A   Overcast
8:41 AM 15.8 °F 5.1 °F 6.8 °F 68% 30.56 in 10.0 mi SW 8.1 mph - N/A   Scattered Clouds
8:53 AM 16.0 °F 5.3 °F 7.0 °F 68% 30.77 in 10.0 mi SW 8.1 mph - N/A   Clear
9:53 AM 19.0 °F 6.8 °F 8.1 °F 62% 30.76 in 10.0 mi West 11.5 mph - N/A   Clear
10:53 AM 21.0 °F 8.6 °F 8.1 °F 57% 30.75 in 10.0 mi West 12.7 mph - N/A   Clear
11:53 AM 25.0 °F 13.1 °F 9.0 °F 51% 30.69 in 10.0 mi WSW 13.8 mph - N/A   Clear
12:53 PM 28.0 °F 16.5 °F 9.0 °F 45% 30.64 in 10.0 mi WSW 15.0 mph - N/A   Clear
1:53 PM 30.0 °F 21.1 °F 9.0 °F 41% 30.59 in 10.0 mi West 10.4 mph - N/A   Clear
2:53 PM 32.0 °F 23.6 °F 10.9 °F 42% 30.56 in 10.0 mi WSW 10.4 mph - N/A   Clear
3:53 PM 34.0 °F 26.6 °F 9.0 °F 35% 30.52 in 10.0 mi West 9.2 mph - N/A   Clear
4:53 PM 26.1 °F 18.4 °F 10.9 °F 53% 30.51 in 10.0 mi SW 6.9 mph - N/A   Clear
5:53 PM 23.0 °F 13.9 °F 12.0 °F 63% 30.50 in 10.0 mi SW 8.1 mph - N/A   Clear
6:53 PM 24.1 °F 15.2 °F 10.9 °F 57% 30.48 in 10.0 mi SW 8.1 mph - N/A   Clear
7:53 PM 21.9 °F 11.7 °F 10.0 °F 60% 30.45 in 10.0 mi SW 9.2 mph - N/A   Clear
8:53 PM 23.0 °F 11.7 °F 10.0 °F 58% 30.38 in 10.0 mi SW 11.5 mph - N/A   Clear
9:53 PM 24.1 °F 13.7 °F 10.9 °F 57% 30.35 in 10.0 mi WSW 10.4 mph - N/A   Clear
10:53 PM 26.1 °F 16.2 °F 10.9 °F 53% 30.32 in 10.0 mi WSW 10.4 mph - N/A   Clear
11:53 PM 26.1 °F 18.4 °F 10.9 °F 53% 30.31 in 10.0 mi SW 6.9 mph - N/A   Clear